Regional Weather Roundup
Issued by NWS

Home | Current Version | Previous Version | Graphics & Text | Print | Product List | Glossary Off
Versions: 1 2 3 4 5 6 7 8 9 10 11 12 13 14 15 16 17 18 19 20 21 22 23 24 25 26 27 28 29 30 31 32 33 34 35 36 37 38 39 40 41 42 43 44 45 46 47 48 49 50

000
ASUS43 KTOP 192059
RWRKS

WEATHER ROUNDUP FOR KANSAS
NATIONAL WEATHER SERVICE GOODLAND KS
400 PM CDT SUN OCT 19 2014

NOTE:  "FAIR" INDICATES FEW OR NO CLOUDS BELOW 12,000 FEET WITH NO
SIGNIFICANT WEATHER AND/OR OBSTRUCTIONS TO VISIBILITY.

KSZ001>006-013>018-027>032-041>047-192200-
NORTHWEST KANSAS

CITY           SKY/WX    TMP DP  RH WIND       PRES   REMARKS
GOODLAND       SUNNY     76  41  28 NE8       30.01S
HAYS           SUNNY     73  48  40 S12       29.96F
HILL CITY      SUNNY     74  47  38 VRB3      29.96F
RUSSELL        SUNNY     73  50  44 S15       29.96F
$$

KSZ061>065-074>080-084>089-192200-
SOUTHWEST KANSAS

CITY           SKY/WX    TMP DP  RH WIND       PRES   REMARKS
DODGE CITY     SUNNY     78  49  35 S17G23    29.95F
ELKHART          N/A     77  52  41 SW9         N/A
GARDEN CITY    SUNNY     75  48  38 SW5       29.96F
GREAT BEND     SUNNY     72  50  46 S15G23    29.98S
LIBERAL        SUNNY     79  52  38 SW15      29.98F
$$

KSZ066>073-081>083-090>101-192200-
SOUTHEAST KANSAS

CITY           SKY/WX    TMP DP  RH WIND       PRES   REMARKS
CHANUTE        SUNNY     68  52  56 SW12      30.06F
COFFEYVILLE    PTSUNNY   67  52  58 S12       30.06F
HUTCHINSON     CLOUDY    68  49  50 S10       30.01F
NEWTON         PTSUNNY   66  46  48 S12       30.04F
PARSONS        MOSUNNY   67  53  61 SW7       30.08F
WICHITA INTL   PTSUNNY   71  51  49 S9        30.01F
WICHITA JABRA  PTSUNNY   69  50  50 S13       30.02F
WINFIELD       SUNNY     72  53  51 S9        30.04F
$$

KSZ007>012-019>026-033>040-048>060-102>105-192200-
NORTHEAST KANSAS

CITY           SKY/WX    TMP DP  RH WIND       PRES   REMARKS
CONCORDIA      SUNNY     71  50  47 S10       29.99F
EMPORIA        SUNNY     70  46  42 S10       30.03F
LAWRENCE       SUNNY     69  48  47 S7        30.03F
MANHATTAN      SUNNY     73  50  44 SW8       30.01F
OLATHE IND     SUNNY     68  47  46 S8        30.04F
OLATHE EXE     SUNNY     68  48  48 SW8       30.04F
SALINA         PTSUNNY   70  49  47 S12       30.00F
TOPEKA BILLARD SUNNY     72  44  36 S9        30.02F
TOPEKA FORBES  SUNNY     71  45  39 S10       30.03F
$$



USA.gov is the U.S. government's official web portal to all federal, state and local government web resources and services.